Location: Hyderabad
(17.3833°N, 78.4667°E)
Time: 10:42:00
(UTC+05:30)

H-2A R/B - Visible Passes

Search period start: 28 May 2018 00:00
Search period end: 07 June 2018 00:00
Orbit: 259 x 32978 km, 28.0° (Epoch: 27 May)

Date Brightness Start Highest point End Pass type
(mag) Time Alt. Az. Time Alt. Az. Time Alt. Az.
28 May 8.0 15:49:12 10° W 16:43:13 51° SW 00:09:28 24° SSW visible
29 May 4.9 10:50:30 10° WNW 17:01:48 25° SE 19:17:33 10° SE visible
30 May 8.0 16:03:31 10° W 17:03:20 47° SW 00:22:57 22° SSW visible
31 May 5.1 11:03:20 10° WNW 17:08:59 28° SE 19:37:15 10° SE visible
01 Jun 8.0 16:18:06 10° W 17:22:46 43° SW 00:36:23 20° SW visible
02 Jun 5.2 11:16:08 10° WNW 17:14:27 30° SSE 19:53:56 11° SE visible
03 Jun 8.0 16:33:06 10° W 17:41:24 39° SW 00:49:48 18° SW visible
04 Jun 5.4 11:28:54 10° WNW 17:17:19 32° SSE 20:07:20 14° SE visible
05 Jun 8.0 16:48:39 10° W 17:59:17 34° SW 01:03:10 15° SW visible
06 Jun 5.6 11:41:38 10° WNW 17:16:08 34° SSE 20:20:41 17° SE visible
